Weather History for Kiana, AK

Change the Weather History Date:

Wednesday, February 13, 2013

  Actual Average (PASK) Record (PASK)
Temperature  
Mean Temperature 18 °F -  
Max Temperature 21 °F 5 °F 24 °F (2000)
Min Temperature 14 °F -3 °F -34 °F (2014)
Degree Days  
Heating Degree Days 48    
Moisture  
Dew Point 14 °F    
Average Humidity 84    
Maximum Humidity 93    
Minimum Humidity 74    
Precipitation  
Precipitation 0.00 in - - ()
Sea Level Pressure  
Sea Level Pressure 29.78 in    
Wind  
Wind Speed 8 mph (East)    
Max Wind Speed 17 mph    
Max Gust Speed 25 mph    
Visibility 7 miles    
Events Snow    
Averages and records for this station are not official NWS values.
T = Trace of Precipitation, MM = Missing Value Source: NWS Daily Summary

Daily Weather History Graph

Daily Weather History Graph

Search for Another Location

Airport:

Trip Planner

Search our weather history database for the weather conditions in past years. The results will help you decide how hot, cold, wet, or windy it might be!

Date:

Astronomy

Feb. 13, 2013 Rise Set
Actual Time 9:58 AM AKST 5:54 PM AKST
Civil Twilight 8:59 AM AKST 6:53 PM AKST
Nautical Twilight 7:56 AM AKST 7:56 PM AKST
Astronomical Twilight 6:55 AM AKST 8:58 PM AKST
Moon 9:30 AM AKST (2/13) No Moon Set
Length of Visible Light 9h 54m
Length of Day
7h 56m
Waxing Crescent, 15% of the Moon is Illuminated
Feb 13
Waxing Crescent
Feb 17
First Quarter
Feb 25
Full
Mar 4
Last Quarter
Mar 11
New

Hourly Weather History & Observations

Time (AKST) Temp. Windchill Dew Point Humidity Pressure Visibility Wind Dir Wind Speed Gust Speed Precip Events Conditions
12:01 AM 14.0 °F 6.5 °F 10.0 °F 84% 29.87 in 9.0 mi East 4.6 mph - 0.00 in Snow Light Snow
12:45 AM 15.8 °F 4.2 °F 10.4 °F 79% 29.74 in 10.0 mi East 9.2 mph 18.4 mph 0.00 in   Overcast
1:01 AM 15.8 °F 3.4 °F 10.4 °F 79% 29.75 in 9.0 mi East 10.4 mph - 0.00 in Snow Light Snow
2:01 AM 14.0 °F 1.2 °F 10.0 °F 84% 29.88 in 9.0 mi East 10.4 mph - 0.00 in Snow Light Snow
3:01 AM 15.1 °F 7.7 °F 10.0 °F 80% 29.88 in 9.0 mi East 4.6 mph - 0.00 in Snow Light Snow
3:22 AM 14.0 °F 6.5 °F 10.4 °F 86% 29.74 in 9.0 mi East 4.6 mph - 0.00 in Snow Light Snow
3:59 AM 15.8 °F 6.1 °F 10.4 °F 79% 29.74 in 9.0 mi East 6.9 mph - 0.00 in Snow Light Snow
4:01 AM 15.1 °F 6.4 °F 10.0 °F 80% 29.87 in 9.0 mi Variable 5.8 mph - 0.00 in Snow Light Snow
5:01 AM 16.0 °F 5.3 °F 10.9 °F 81% 29.87 in 6.0 mi East 8.1 mph - 0.00 in Snow Light Snow
5:35 AM 15.8 °F 5.1 °F 12.2 °F 86% 29.73 in 9.0 mi ENE 8.1 mph - 0.00 in Snow Light Snow
6:01 AM 17.1 °F 8.7 °F 12.0 °F 81% 29.86 in 9.0 mi East 5.8 mph - 0.00 in Snow Light Snow
6:28 AM 17.6 °F 8.2 °F 12.2 °F 79% 29.72 in 9.0 mi East 6.9 mph - 0.00 in Snow Light Snow
7:01 AM 17.1 °F 7.6 °F 12.0 °F 81% 29.85 in 9.0 mi Variable 6.9 mph - 0.00 in Snow Light Snow
8:01 AM 17.1 °F 8.7 °F 12.9 °F 84% 29.85 in 5.0 mi Variable 5.8 mph - 0.00 in Snow Light Snow
8:19 AM 17.6 °F 8.2 °F 12.2 °F 79% 29.72 in 9.0 mi East 6.9 mph - 0.00 in Snow Light Snow
9:01 AM 18.0 °F 9.8 °F 10.9 °F 74% 29.85 in 10.0 mi Variable 5.8 mph - 0.00 in   Overcast
10:01 AM 18.0 °F 7.7 °F 12.0 °F 78% 29.85 in 9.0 mi East 8.1 mph - 0.00 in Snow Light Snow
10:57 AM 19.4 °F 7.9 °F 14.0 °F 80% 29.72 in 7.0 mi East 10.4 mph 18.4 mph 0.00 in Snow Light Snow
11:01 AM 19.0 °F 9.0 °F 14.0 °F 81% 29.86 in 8.0 mi East 8.1 mph - 0.00 in Snow Light Snow
11:44 AM 19.4 °F 7.9 °F 15.8 °F 86% 29.73 in 7.0 mi East 10.4 mph - 0.00 in Snow Light Snow
11:58 AM 19.4 °F 7.9 °F 15.8 °F 86% 29.73 in 5.0 mi East 10.4 mph 18.4 mph 0.00 in Snow Light Snow
12:01 PM 19.0 °F 8.2 °F 15.1 °F 85% 29.86 in 5.0 mi East 9.2 mph 18.4 mph 0.00 in Snow Light Snow
1:01 PM 19.0 °F 6.1 °F 15.1 °F 85% 29.86 in 4.0 mi East 12.7 mph 16.1 mph 0.00 in Snow Light Snow
1:53 PM 19.4 °F 7.2 °F 15.8 °F 86% 29.72 in 7.0 mi East 11.5 mph - 0.00 in Snow Light Snow
2:01 PM 19.9 °F 7.9 °F 16.0 °F 85% 29.85 in 7.0 mi East 11.5 mph - 0.00 in Snow Light Snow
3:01 PM 21.0 °F 6.6 °F 15.1 °F 78% 29.83 in 10.0 mi East 17.3 mph 21.9 mph 0.00 in   Overcast
4:01 PM 19.9 °F 12.1 °F 15.1 °F 81% 29.84 in 10.0 mi Variable 5.8 mph - N/A   Scattered Clouds
4:13 PM 19.4 °F 6.6 °F 15.8 °F 86% 29.70 in 10.0 mi East 12.7 mph 19.6 mph N/A   Mostly Cloudy
4:44 PM 21.2 °F 11.7 °F 15.8 °F 80% 29.70 in 10.0 mi ENE 8.1 mph 18.4 mph N/A   Overcast
5:01 PM 21.0 °F 16.2 °F 15.1 °F 78% 29.84 in 10.0 mi Variable 3.5 mph - N/A   Overcast
6:01 PM 21.0 °F 8.6 °F 14.0 °F 74% 29.82 in 9.0 mi East 12.7 mph 21.9 mph 0.00 in Snow Light Snow
7:01 PM 21.0 °F 7.6 °F 15.1 °F 78% 29.82 in 9.0 mi East 15.0 mph 24.2 mph 0.00 in Snow Light Snow
8:01 PM 21.0 °F 6.6 °F 15.1 °F 78% 29.82 in 9.0 mi East 17.3 mph 25.3 mph 0.00 in Snow Light Snow
8:33 PM 21.2 °F 7.8 °F 15.8 °F 80% 29.69 in 3.0 mi East 15.0 mph 25.3 mph 0.00 in Snow Light Snow
8:40 PM 21.2 °F 8.9 °F 17.6 °F 86% 29.69 in 1.8 mi East 12.7 mph 25.3 mph 0.00 in Snow Light Snow
8:47 PM 19.4 °F 5.5 °F 17.6 °F 93% 29.69 in 1.8 mi East 15.0 mph 23.0 mph 0.00 in Snow Light Snow
8:54 PM 19.4 °F 7.2 °F 17.6 °F 93% 29.69 in 2.0 mi East 11.5 mph 25.3 mph 0.00 in Snow Light Snow
9:01 PM 19.9 °F 6.7 °F 17.1 °F 89% 29.83 in 2.5 mi East 13.8 mph 20.7 mph 0.00 in Snow Light Snow
9:08 PM 19.4 °F 6.0 °F 15.8 °F 86% 29.70 in 4.0 mi East 13.8 mph 20.7 mph 0.00 in Snow Light Snow
9:13 PM 19.4 °F 8.6 °F 15.8 °F 86% 29.70 in 5.0 mi East 9.2 mph 18.4 mph 0.00 in Snow Light Snow
10:01 PM 21.0 °F - 17.1 °F 85% 29.84 in 7.0 mi Calm Calm - 0.00 in Snow Light Snow
10:18 PM 19.4 °F 8.6 °F 15.8 °F 86% 29.70 in 4.0 mi East 9.2 mph - 0.00 in Snow Light Snow
10:25 PM 19.4 °F 7.2 °F 17.6 °F 93% 29.70 in 2.5 mi East 11.5 mph - 0.00 in Snow Light Snow
10:34 PM 19.4 °F 10.4 °F 17.6 °F 93% 29.70 in 4.0 mi East 6.9 mph - 0.00 in Snow Light Snow
10:45 PM 19.4 °F 9.5 °F 17.6 °F 93% 29.71 in 3.0 mi East 8.1 mph - 0.00 in Snow Light Snow
10:56 PM 19.4 °F 10.4 °F 17.6 °F 93% 29.70 in 5.0 mi East 6.9 mph - 0.00 in Snow Light Snow
11:01 PM 19.9 °F 12.1 °F 17.1 °F 89% 29.83 in 6.0 mi East 5.8 mph - 0.00 in Snow Light Snow
11:24 PM 19.4 °F 9.5 °F 15.8 °F 86% 29.70 in 9.0 mi East 8.1 mph - 0.00 in Snow Light Snow
11:38 PM 19.4 °F 9.5 °F 15.8 °F 86% 29.70 in 8.0 mi ENE 8.1 mph - 0.00 in Snow Light Snow